Soldotna, AK

10:23 AM AKDT on October 20, 2017 (GMT -0800)
Soldotna

Weather History for PASX - July, 2013

Change the Weather History Date:

Tuesday, July 9, 2013

  Actual Average Record
Temperature  
Mean Temperature 53 °F -  
Max Temperature 62 °F 62 °F 78 °F (1975)
Min Temperature 44 °F 47 °F 35 °F (2010)
Degree Days  
Heating Degree Days 12    
Growing Degree Days 3 (Base 50)    
Moisture  
Dew Point 44 °F    
Average Humidity 66    
Maximum Humidity 87    
Minimum Humidity 52    
Precipitation  
Precipitation 0.00 in - - ()
Sea Level Pressure  
Sea Level Pressure 29.95 in    
Wind  
Wind Speed 5 mph (WSW)    
Max Wind Speed 15 mph    
Max Gust Speed 21 mph    
Visibility 10 miles    
Events      
Averages and records for this station are not official NWS values.
T = Trace of Precipitation, MM = Missing Value Source: NWS Daily Summary

Daily Weather History Graph

Daily Weather History Graph

Search for Another Location

Airport or City:

Trip Planner

Search our weather history database for the weather conditions in past years. The results will help you decide how hot, cold, wet, or windy it might be!

Date:

Astronomy

Jul. 09, 2013 Rise Set
Actual Time 4:52 AM AKDT 11:24 PM AKDT
Civil Twilight 3:19 AM AKDT 12:56 AM AKDT
Nautical Twilight Sun does not rise Sun does not rise
Astronomical Twilight Sun does not rise Sun does not rise
Moon 7:15 AM AKDT (7/9) 11:09 PM AKDT (7/9)
Length of Visible Light 21h 36m
Length of Day
18h 31m
New Moon, 2% of the Moon is Illuminated
Jul 9
New Moon
Jul 15
First Quarter
Jul 22
Full
Jul 29
Last Quarter
Aug 6
New

Hourly Weather History & Observations

Time (AKDT) Temp. Windchill Dew Point Humidity Pressure Visibility Wind Dir Wind Speed Gust Speed Precip Events Conditions
12:16 AM 51.8 °F - 42.8 °F 71% 29.83 in 10.0 mi SE 4.6 mph - N/A   Unknown
12:36 AM 51.8 °F - 42.8 °F 71% 29.83 in 10.0 mi Calm Calm - N/A   Unknown
12:56 AM 51.8 °F - 42.8 °F 71% 29.83 in 10.0 mi SSE 4.6 mph - N/A   Unknown
1:16 AM 51.8 °F - 42.8 °F 71% 29.84 in 10.0 mi SSE 5.8 mph - N/A   Unknown
1:36 AM 50.0 °F - 42.8 °F 76% 29.84 in 10.0 mi Calm Calm - N/A   Unknown
1:56 AM 50.0 °F - 42.8 °F 76% 29.84 in 10.0 mi ESE 4.6 mph - N/A   Unknown
2:16 AM 48.2 °F - 42.8 °F 82% 29.85 in 10.0 mi East 3.5 mph - N/A   Unknown
2:36 AM 46.4 °F 43.5 °F 42.8 °F 87% 29.85 in 10.0 mi East 5.8 mph - N/A   Unknown
2:56 AM 48.2 °F - 42.8 °F 82% 29.86 in 10.0 mi Calm Calm - N/A   Unknown
3:16 AM 46.4 °F 45.2 °F 41.0 °F 81% 29.86 in 10.0 mi East 3.5 mph - N/A   Unknown
3:36 AM 46.4 °F - 42.8 °F 87% 29.87 in 10.0 mi Calm Calm - N/A   Unknown
3:56 AM 46.4 °F - 41.0 °F 81% 29.87 in 10.0 mi Calm Calm - N/A   Unknown
4:16 AM 46.4 °F - 41.0 °F 81% 29.87 in 10.0 mi Calm Calm - N/A   Unknown
4:36 AM 46.4 °F - 41.0 °F 81% 29.87 in 10.0 mi Calm Calm - N/A   Unknown
4:56 AM 46.4 °F 45.2 °F 41.0 °F 81% 29.88 in 10.0 mi East 3.5 mph - N/A   Unknown
5:16 AM 46.4 °F 45.2 °F 41.0 °F 81% 29.88 in 10.0 mi ENE 3.5 mph - N/A   Unknown
5:36 AM 46.4 °F - 41.0 °F 81% 29.88 in 10.0 mi Calm Calm - N/A   Unknown
5:56 AM 44.6 °F - 39.2 °F 81% 29.89 in 10.0 mi Calm Calm - N/A   Unknown
6:16 AM 44.6 °F 42.2 °F 39.2 °F 81% 29.89 in 10.0 mi East 4.6 mph - N/A   Unknown
6:36 AM 46.4 °F 45.2 °F 41.0 °F 81% 29.89 in 10.0 mi East 3.5 mph - N/A   Unknown
6:56 AM 46.4 °F - 41.0 °F 81% 29.90 in 10.0 mi Calm Calm - N/A   Unknown
7:16 AM 46.4 °F - 42.8 °F 87% 29.90 in 10.0 mi Calm Calm - N/A   Unknown
7:36 AM 48.2 °F - 42.8 °F 82% 29.91 in 5.0 mi Calm Calm - N/A   Unknown
7:56 AM 50.0 °F - 42.8 °F 76% 29.91 in 10.0 mi Calm Calm - N/A   Unknown
8:16 AM 51.8 °F - 42.8 °F 71% 29.92 in 10.0 mi Calm Calm - N/A   Unknown
8:36 AM 53.6 °F - 42.8 °F 67% 29.92 in 8.0 mi Calm Calm - N/A   Unknown
8:56 AM 53.6 °F - 44.6 °F 72% 29.93 in 9.0 mi WNW 3.5 mph - N/A   Unknown
9:16 AM 53.6 °F - 44.6 °F 72% 29.94 in 10.0 mi WNW 3.5 mph - N/A   Unknown
9:36 AM 55.4 °F - 42.8 °F 63% 29.94 in 10.0 mi West 5.8 mph - N/A   Unknown
9:56 AM 55.4 °F - 44.6 °F 67% 29.94 in 7.0 mi WSW 8.1 mph - N/A   Unknown
10:16 AM 55.4 °F - 44.6 °F 67% 29.95 in 10.0 mi NW 5.8 mph - N/A   Unknown
10:36 AM 57.2 °F - 44.6 °F 63% 29.95 in 10.0 mi West 9.2 mph - N/A   Unknown
10:56 AM 55.4 °F - 44.6 °F 67% 29.96 in 10.0 mi West 9.2 mph - N/A   Unknown
11:16 AM 55.4 °F - 44.6 °F 67% 29.96 in 10.0 mi West 9.2 mph - N/A   Unknown
11:36 AM 57.2 °F - 44.6 °F 63% 29.96 in 10.0 mi WNW 8.1 mph - N/A   Unknown
11:56 AM 57.2 °F - 44.6 °F 63% 29.97 in 10.0 mi WNW 4.6 mph - N/A   Unknown
12:16 PM 57.2 °F - 44.6 °F 63% 29.97 in 10.0 mi West 5.8 mph - N/A   Unknown
12:36 PM 59.0 °F - 46.4 °F 63% 29.98 in 10.0 mi NW 6.9 mph - N/A   Unknown
12:56 PM 59.0 °F - 46.4 °F 63% 29.98 in 10.0 mi NW 8.1 mph - N/A   Unknown
1:16 PM 60.8 °F - 46.4 °F 59% 29.98 in 10.0 mi WNW 8.1 mph - N/A   Unknown
1:36 PM 60.8 °F - 46.4 °F 59% 29.98 in 10.0 mi WNW 9.2 mph - N/A   Unknown
1:56 PM 60.8 °F - 46.4 °F 59% 29.98 in 10.0 mi WNW 9.2 mph 16.1 mph N/A   Unknown
2:16 PM 60.8 °F - 46.4 °F 59% 29.99 in 10.0 mi West 13.8 mph 17.3 mph N/A   Unknown
2:36 PM 60.8 °F - 46.4 °F 59% 29.99 in 10.0 mi West 12.7 mph - N/A   Unknown
2:56 PM 60.8 °F - 44.6 °F 55% 29.99 in 10.0 mi West 12.7 mph - N/A   Unknown
3:16 PM 60.8 °F - 44.6 °F 55% 29.99 in 10.0 mi West 13.8 mph - N/A   Unknown
3:36 PM 62.6 °F - 44.6 °F 52% 30.00 in 10.0 mi West 13.8 mph - N/A   Unknown
3:56 PM 60.8 °F - 44.6 °F 55% 30.00 in 10.0 mi West 13.8 mph - N/A   Unknown
4:16 PM 60.8 °F - 44.6 °F 55% 30.00 in 10.0 mi WNW 15.0 mph 18.4 mph N/A   Unknown
4:36 PM 60.8 °F - 44.6 °F 55% 30.00 in 10.0 mi West 12.7 mph - N/A   Unknown
4:56 PM 60.8 °F - 46.4 °F 59% 30.01 in 10.0 mi West 13.8 mph 17.3 mph N/A   Unknown
5:16 PM 60.8 °F - 46.4 °F 59% 30.01 in 10.0 mi West 12.7 mph - N/A   Unknown
5:36 PM 60.8 °F - 46.4 °F 59% 30.01 in 10.0 mi West 12.7 mph 20.7 mph N/A   Unknown
5:56 PM 62.6 °F - 46.4 °F 55% 30.01 in 10.0 mi WSW 13.8 mph - N/A   Unknown
6:16 PM 62.6 °F - 46.4 °F 55% 30.01 in 10.0 mi West 8.1 mph - N/A   Unknown
6:36 PM 62.6 °F - 46.4 °F 55% 30.01 in 10.0 mi WSW 8.1 mph - N/A   Unknown
6:56 PM 62.6 °F - 46.4 °F 55% 30.01 in 10.0 mi West 8.1 mph - N/A   Unknown
7:16 PM 62.6 °F - 46.4 °F 55% 30.01 in 10.0 mi SW 10.4 mph - N/A   Unknown
7:36 PM 62.6 °F - 44.6 °F 52% 30.01 in 10.0 mi WSW 12.7 mph - N/A   Unknown
7:56 PM 62.6 °F - 44.6 °F 52% 30.01 in 10.0 mi WSW 10.4 mph - N/A   Unknown
8:16 PM 62.6 °F - 44.6 °F 52% 30.01 in 10.0 mi SW 11.5 mph - N/A   Unknown
8:36 PM 62.6 °F - 44.6 °F 52% 30.01 in 10.0 mi WSW 8.1 mph - N/A   Unknown
8:56 PM 62.6 °F - 46.4 °F 55% 30.01 in 10.0 mi WSW 9.2 mph - N/A   Unknown
9:16 PM 62.6 °F - 46.4 °F 55% 30.01 in 10.0 mi WSW 8.1 mph - N/A   Unknown
9:36 PM 62.6 °F - 46.4 °F 55% 30.01 in 10.0 mi SSW 6.9 mph - N/A   Unknown
9:56 PM 62.6 °F - 46.4 °F 55% 30.01 in 10.0 mi South 5.8 mph - N/A   Unknown
10:16 PM 60.8 °F - 46.4 °F 59% 30.02 in 10.0 mi South 6.9 mph - N/A   Unknown
10:36 PM 60.8 °F - 46.4 °F 59% 30.02 in 10.0 mi South 4.6 mph - N/A   Unknown
10:56 PM 59.0 °F - 44.6 °F 59% 30.02 in 10.0 mi South 3.5 mph - N/A   Unknown
11:16 PM 57.2 °F - 44.6 °F 63% 30.02 in 10.0 mi SSE 3.5 mph - N/A   Unknown
11:36 PM 57.2 °F - 44.6 °F 63% 30.02 in 10.0 mi South 3.5 mph - N/A   Unknown
11:56 PM 57.2 °F - 44.6 °F 63% 30.03 in 10.0 mi South 4.6 mph - N/A   Unknown